Weather History for KLJF - January, 2014

Change the Weather History Date:

Friday, January 17, 2014

  Actual Average Record
Temperature  
Mean Temperature 4 °F -  
Max Temperature 12 °F 20 °F 42 °F (1961)
Min Temperature -4 °F 1 °F -32 °F (1977)
Degree Days  
Heating Degree Days 61    
Moisture  
Dew Point -1 °F    
Average Humidity 79    
Maximum Humidity 92    
Minimum Humidity 67    
Precipitation  
Precipitation 0.00 in - - ()
Sea Level Pressure  
Sea Level Pressure 29.95 in    
Wind  
Wind Speed 11 mph (WNW)    
Max Wind Speed 20 mph    
Max Gust Speed 25 mph    
Visibility 10 miles    
Events Snow    
Averages and records for this station are not official NWS values.
T = Trace of Precipitation, MM = Missing Value Source: NWS Daily Summary

Daily Weather History Graph

Daily Weather History Graph

Search for Another Location

Airport or City:

Trip Planner

Search our weather history database for the weather conditions in past years. The results will help you decide how hot, cold, wet, or windy it might be!

Date:

Astronomy

Jan. 17, 2014 Rise Set
Actual Time 7:51 AM CST 5:05 PM CST
Civil Twilight 7:19 AM CST 5:37 PM CST
Nautical Twilight 6:42 AM CST 6:13 PM CST
Astronomical Twilight 6:07 AM CST 6:49 PM CST
Moon 6:59 PM CST (1/17) 8:14 AM CST (1/17)
Length of Visible Light 10h 18m
Length of Day
9h 13m
Full, 98% of the Moon is Illuminated
Jan 17
Full
Jan 23
Last Quarter
Jan 30
New
Feb 6
First Quarter
Feb 14
Full

Hourly Weather History & Observations

Time (CST) Temp. Windchill Dew Point Humidity Pressure Visibility Wind Dir Wind Speed Gust Speed Precip Events Conditions
12:13 AM 3.2 °F -15.9 °F -2.2 °F 78% 29.93 in 7.0 mi NW 16.1 mph 23.0 mph N/A   Overcast
12:33 AM 3.2 °F -17.1 °F -2.2 °F 78% 29.93 in 10.0 mi NW 18.4 mph - N/A   Overcast
12:53 AM 1.4 °F -18.2 °F -2.2 °F 85% 29.93 in 10.0 mi NNW 16.1 mph 25.3 mph N/A   Overcast
1:13 AM 1.4 °F -19.9 °F -2.2 °F 85% 29.94 in 10.0 mi NNW 19.6 mph 24.2 mph N/A   Overcast
1:33 AM 1.4 °F -18.8 °F -2.2 °F 85% 29.94 in 10.0 mi NNW 17.3 mph 23.0 mph N/A   Overcast
1:53 AM 1.4 °F -18.8 °F -4.0 °F 78% 29.95 in 10.0 mi NNW 17.3 mph 21.9 mph N/A   Overcast
2:13 AM 1.4 °F -18.8 °F -4.0 °F 78% 29.95 in 10.0 mi NNW 17.3 mph - N/A   Overcast
2:33 AM -0.4 °F -20.5 °F -5.8 °F 78% 29.96 in 10.0 mi NW 16.1 mph - N/A   Overcast
2:53 AM -0.4 °F -19.2 °F -5.8 °F 78% 29.97 in 10.0 mi NW 13.8 mph - N/A   Overcast
3:13 AM -0.4 °F -19.9 °F -5.8 °F 78% 29.97 in 10.0 mi NW 15.0 mph 19.6 mph N/A   Overcast
3:33 AM -0.4 °F -18.4 °F -5.8 °F 78% 29.98 in 10.0 mi NW 12.7 mph 18.4 mph N/A   Overcast
3:53 AM -0.4 °F -19.9 °F -5.8 °F 78% 29.98 in 10.0 mi NW 15.0 mph 21.9 mph N/A   Overcast
4:13 AM -2.2 °F -21.5 °F -5.8 °F 85% 29.98 in 10.0 mi NW 13.8 mph 21.9 mph N/A   Mostly Cloudy
4:33 AM -2.2 °F -24.1 °F -5.8 °F 85% 29.98 in 10.0 mi NW 18.4 mph - N/A   Mostly Cloudy
4:53 AM -2.2 °F -22.9 °F -5.8 °F 85% 29.98 in 10.0 mi NW 16.1 mph 19.6 mph N/A   Mostly Cloudy
5:13 AM -2.2 °F -21.5 °F -7.6 °F 78% 30.00 in 10.0 mi NW 13.8 mph 23.0 mph N/A   Mostly Cloudy
5:33 AM -2.2 °F -21.5 °F -7.6 °F 78% 30.00 in 10.0 mi NW 13.8 mph 18.4 mph N/A   Overcast
5:53 AM -2.2 °F -19.9 °F -7.6 °F 78% 30.01 in 10.0 mi NW 11.5 mph - N/A   Scattered Clouds
6:13 AM -2.2 °F -18.0 °F -7.6 °F 78% 30.02 in 10.0 mi NW 9.2 mph - N/A   Clear
6:33 AM -2.2 °F -18.9 °F -7.6 °F 78% 30.02 in 10.0 mi NW 10.4 mph 17.3 mph N/A   Clear
6:53 AM -2.2 °F -19.9 °F -7.6 °F 78% 30.02 in 10.0 mi NW 11.5 mph - N/A   Clear
7:13 AM -2.2 °F -19.9 °F -7.6 °F 78% 30.03 in 10.0 mi NW 11.5 mph 16.1 mph N/A   Clear
7:33 AM -4.0 °F -22.1 °F -7.6 °F 85% 30.02 in 10.0 mi NW 11.5 mph 17.3 mph N/A   Clear
7:53 AM -4.0 °F -21.2 °F -7.6 °F 85% 30.03 in 10.0 mi NW 10.4 mph - N/A   Clear
8:13 AM -4.0 °F -22.1 °F -7.6 °F 85% 30.03 in 10.0 mi NW 11.5 mph - N/A   Clear
8:33 AM -4.0 °F -20.2 °F -7.6 °F 85% 30.04 in 10.0 mi NW 9.2 mph - N/A   Clear
8:52 AM -2.2 °F -18.9 °F -9.4 °F 71% 30.04 in 10.0 mi NW 10.4 mph 16.1 mph N/A   Clear
9:13 AM -2.2 °F -18.9 °F -7.6 °F 78% 30.04 in 10.0 mi NW 10.4 mph - N/A   Clear
9:33 AM -2.2 °F -18.0 °F -7.6 °F 78% 30.04 in 10.0 mi NW 9.2 mph - N/A   Clear
9:52 AM -0.4 °F -14.7 °F -7.6 °F 72% 30.04 in 10.0 mi NW 8.1 mph - N/A   Clear
10:13 AM -0.4 °F -15.7 °F -7.6 °F 72% 30.05 in 10.0 mi NW 9.2 mph - N/A   Clear
10:32 AM -0.4 °F -13.4 °F -5.8 °F 78% 30.06 in 10.0 mi WNW 6.9 mph - N/A   Clear
10:53 AM 1.4 °F -13.5 °F -5.8 °F 72% 30.06 in 10.0 mi NW 9.2 mph - N/A   Clear
11:13 AM 1.4 °F -9.9 °F -5.8 °F 72% 30.05 in 10.0 mi NW 5.8 mph - N/A   Clear
11:32 AM 3.2 °F -9.1 °F -4.0 °F 72% 30.04 in 10.0 mi NW 6.9 mph - N/A   Clear
11:53 AM 5.0 °F -5.6 °F -2.2 °F 72% 30.03 in 10.0 mi NW 5.8 mph - N/A   Clear
12:13 PM 6.8 °F -5.9 °F -0.4 °F 72% 30.03 in 10.0 mi WNW 8.1 mph - N/A   Clear
12:32 PM 6.8 °F -5.9 °F -0.4 °F 72% 30.02 in 10.0 mi WNW 8.1 mph - N/A   Clear
12:53 PM 8.6 °F -4.7 °F 1.4 °F 73% 30.01 in 10.0 mi WNW 9.2 mph - N/A   Clear
1:13 PM 10.4 °F -0.4 °F 3.2 °F 73% 30.01 in 10.0 mi West 6.9 mph - N/A   Clear
1:32 PM 10.4 °F -0.4 °F 1.4 °F 67% 30.00 in 10.0 mi WNW 6.9 mph - N/A   Clear
1:53 PM 10.4 °F 2.2 °F 1.4 °F 67% 29.99 in 10.0 mi West 4.6 mph - N/A   Clear
2:13 PM 10.4 °F 2.2 °F 1.4 °F 67% 29.99 in 10.0 mi West 4.6 mph - N/A   Clear
2:32 PM 10.4 °F 4.0 °F 1.4 °F 67% 29.99 in 10.0 mi West 3.5 mph - N/A   Clear
2:53 PM 10.4 °F 2.2 °F 1.4 °F 67% 29.99 in 10.0 mi West 4.6 mph - N/A   Clear
3:13 PM 10.4 °F 4.0 °F 3.2 °F 73% 29.99 in 10.0 mi WNW 3.5 mph - N/A   Clear
3:33 PM 10.4 °F 2.2 °F 3.2 °F 73% 29.98 in 10.0 mi West 4.6 mph - N/A   Clear
3:53 PM 10.4 °F 2.2 °F 3.2 °F 73% 29.99 in 10.0 mi West 4.6 mph - N/A   Clear
4:13 PM 10.4 °F - 3.2 °F 73% 29.98 in 10.0 mi Calm Calm - N/A   Clear
4:32 PM 8.6 °F - 1.4 °F 73% 29.98 in 10.0 mi Calm Calm - N/A   Clear
4:53 PM 8.6 °F - 3.2 °F 79% 29.97 in 10.0 mi Calm Calm - N/A   Clear
5:13 PM 6.8 °F - 1.4 °F 79% 29.96 in 10.0 mi Calm Calm - N/A   Clear
5:33 PM 5.0 °F - 1.4 °F 85% 29.96 in 10.0 mi Calm Calm - N/A   Clear
5:53 PM 5.0 °F -2.1 °F 1.4 °F 85% 29.95 in 10.0 mi WSW 3.5 mph - N/A   Clear
6:13 PM 6.8 °F -0.1 °F 1.4 °F 79% 29.94 in 10.0 mi WSW 3.5 mph - N/A   Clear
6:33 PM 6.8 °F - 3.2 °F 85% 29.92 in 10.0 mi Calm Calm - N/A   Unknown
6:53 PM 6.8 °F - 3.2 °F 85% 29.91 in 10.0 mi Calm Calm - N/A   Clear
7:12 PM 6.8 °F - 3.2 °F 85% 29.92 in 10.0 mi Calm Calm - N/A   Unknown
7:33 PM 6.8 °F - 3.2 °F 85% 29.92 in 10.0 mi Calm Calm - N/A   Clear
7:53 PM 6.8 °F - 3.2 °F 85% 29.91 in 10.0 mi Calm Calm - N/A   Scattered Clouds
8:13 PM 6.8 °F -0.1 °F 3.2 °F 85% 29.88 in 10.0 mi SSE 3.5 mph - N/A   Clear
8:32 PM 6.8 °F -2.0 °F 5.0 °F 92% 29.86 in 10.0 mi SSE 4.6 mph - N/A   Clear
8:53 PM 8.6 °F - 5.0 °F 85% 29.85 in 10.0 mi Calm Calm - N/A   Clear
9:13 PM 8.6 °F 2.0 °F 5.0 °F 85% 29.83 in 10.0 mi SSE 3.5 mph - N/A   Scattered Clouds
9:32 PM 8.6 °F 2.0 °F 5.0 °F 85% 29.81 in 10.0 mi SSE 3.5 mph - N/A   Mostly Cloudy
9:53 PM 8.6 °F -2.6 °F 5.0 °F 85% 29.78 in 10.0 mi SSE 6.9 mph - N/A   Overcast
10:12 PM 10.4 °F -0.4 °F 6.8 °F 85% 29.78 in 10.0 mi SSE 6.9 mph - N/A   Overcast
10:33 PM 10.4 °F -0.4 °F 6.8 °F 85% 29.75 in 10.0 mi SSE 6.9 mph - N/A   Overcast
10:53 PM 12.2 °F 1.7 °F 6.8 °F 79% 29.73 in 10.0 mi SE 6.9 mph - N/A   Overcast
11:12 PM 12.2 °F 0.7 °F 5.0 °F 73% 29.72 in 10.0 mi SE 8.1 mph - N/A Snow Light Snow
11:33 PM 12.2 °F 1.7 °F 6.8 °F 79% 29.71 in 4.0 mi SSE 6.9 mph - N/A Snow Light Snow
11:53 PM 12.2 °F -0.2 °F 8.6 °F 85% 29.68 in 2.5 mi SSE 9.2 mph - N/A Snow Light Snow